Regional Weather Roundup
Issued by NWS Sioux Falls, SD

Home | Current Version | Previous Version | Text Only | Print | Product List | Glossary Off
Versions: 1 2 3 4 5 6 7 8 9 10 11 12 13 14 15 16 17 18 19 20 21 22 23 24 25 26 27 28 29 30 31 32 33 34 35 36 37 38 39 40 41 42 43 44 45 46 47 48 49 50

431
ASUS43 KFSD 301802
RWRFSD

WEATHER ROUNDUP FOR SE SOUTH DAKOTA/SW MINNESOTA/NW IOWA
NATIONAL WEATHER SERVICE SIOUX FALLS SD
100 PM CDT SUN APR 30 2017

NOTE: "FAIR" INDICATES FEW OR NO CLOUDS BELOW 12,000 FEET WITH NO
SIGNIFICANT WEATHER AND OR OBSTRUCTIONS TO VISIBILITY.


SDZ038>040-050-052>070-301900-
SOUTHEAST SOUTH DAKOTA

CITY           SKY/WX    TMP DP  RH WIND       PRES   REMARKS
BROOKINGS      LGT RAIN  41  26  55 NE22      29.88F
CHAMBERLAIN    CLOUDY    51  20  29 N13G20    29.90F
6HR MIN TEMP:  40; 6HR MAX TEMP:  51;

HURON          CLOUDY    50  26  39 NE16G25   29.91F
6HR MIN TEMP:  38; 6HR MAX TEMP:  51;

MADISON        LGT RAIN  37  32  81 NE20G31   29.87F
MITCHELL       CLOUDY    48  28  46 NE18      29.89F
6HR MIN TEMP:  39; 6HR MAX TEMP:  48;

SIOUX FALLS    LGT RAIN  41  41 100 NE25G33   29.84F
6HR MIN TEMP:  37; 6HR MAX TEMP:  44; 6HR PCP:  0.09;

WINNER         FAIR      50  21  32 NE24      29.89F
YANKTON        CLOUDY    39  34  81 N20G26    29.81F
$$

MNZ071-072-080-081-089-090-097-098-301900-
SOUTHWEST MINNESOTA

CITY           SKY/WX    TMP DP  RH WIND       PRES   REMARKS
FAIRMONT       LGT RAIN  40  36  86 NE21      29.84F
JACKSON        LGT SNOW  36  36 100 NE21G31   29.85F
LUVERNE        DRIZZLE   37  34  87 NE22G32   29.83F
MARSHALL       CLOUDY    41  35  79 NE21G26   29.91F
6HR MIN TEMP:  37; 6HR MAX TEMP:  42; 6HR PCP: TRACE;

MONTEVIDEO     LGT RAIN  43  34  70 E15       29.97F
PIPESTONE      RAIN      39  32  75 NE22G30   29.85F
REDWOOD FALLS  CLOUDY    41  34  76 NE15G24   29.93F
TRACY          DRIZZLE   41  38  91 NE21      29.90F
WINDOM         LGT RAIN  39  36  87 N17G24    29.87F
WORTHINGTON    LGT RAIN  37  35  92 NE24G35   29.81F
$$

IAZ001>003-012>014-020>022-031-032-NEZ013-014-SDZ071-301900-
NORTHWEST IOWA

CITY           SKY/WX    TMP DP  RH WIND       PRES   REMARKS
CHEROKEE       CLOUDY    39  38  96 NE24      29.75S
DENISON        CLOUDY    41  39  93 NE24G36   29.66F
ESTHERVILLE    CLOUDY    38  37  97 NE21      29.82F FOG
ORANGE CITY    CLOUDY    39  37  93 NE15G28   29.77F
SHELDON        CLOUDY    39  37  93 NE26      29.78F
SIOUX CITY     LGT RAIN  40  39  97 NE21G29   29.73F FOG
6HR MIN TEMP:  39; 6HR MAX TEMP:  41; 6HR PCP:  0.30;

SPENCER        CLOUDY    40  37  89 NE29G40   29.76F
6HR MIN TEMP:  39; 6HR MAX TEMP:  40; 6HR PCP:  0.09;

STORM LAKE     CLOUDY    37  36  93 NE31G39   29.72F
$$

ABBREVIATIONS USED IN REMARKS
   TC - TEMPERATURE IN CELSIUS
  WCI - WIND CHILL INDEX
   HX - HEAT INDEX
  VSB - VISIBILITY





USA.gov is the U.S. government's official web portal to all federal, state and local government web resources and services.